BREEZE-M DEB, 34229

Orbit data source: Space-Track

BREEZE-M DEB, 34229 is space debris originally from a launch on Tue, 28 Feb 2006 UTC launched from the Tyuratam Missile And Space Complex (TTMTR). Debris objects in space refer to the collection of defunct objects orbiting the Earth. Examples of debris include non-operational satellites, rocket bodies, and fragments generated from explosions, collisions, or faulty payload assembly.

Loading next visibility...
Identifier
34229, 2006-006AU
Orbit
Active
Country
Flag of CISCIS
Related business
Manufacturer
Khrunichev
Mission
Spacecraft
Bus & Motor
Unknown
Mass
Unknown
Launch date (UTC)
2006-02-28 (20 years ago)
Launch vehicle
Unknown
Launch site
Tyuratam Missile And Space Complex (TTMTR)
Object type
Payload
Rocket body
Debris
Shape & HBR
Unknown shape, 1.1 m
Radar Cross Section
Medium (>0.1 m² and <1 m²)

Expand to show TLE details & history
Last TLE update: 4 weeks ago

TLE from 4 weeks ago
0 BREEZE-M DEB
1 34229U 06006AU  26137.49794533  .00014505  00000-0  35145-2 0  9990
2 34229  51.3538  68.0775 3688740 179.4052 181.3241  7.84570615283729
Epoch: 2026-05-17T11:57Z
TLE epoch observation values (Epoch: 2026-05-17T11:57:02.476Z)
Latitude
0.00004°
Longitude
13.61752°
Altitude
8,266.338 km
Speed
4.146 km/s
True Right ascension
04h 32m 18s
True Declination
0° 00' 00"
Sunlit
Object was in daylight at epoch
Visualization orbit readout
Latitude
Unknown
Longitude
Unknown
Altitude
Unknown
Speed
Unknown
Apparent Right ascension
Unknown
Apparent Declination
Unknown
Sunlit
N/A
Visualization observer readout
Local Sidereal Time
18:21:04
Azimuth
Unknown
Elevation
Unknown
Doppler factor
Unknown
Orbital elements
Apogee altitude
8,267.061 km
Perigee altitude
374.103 km
Semi-major axis
10,698.719 km
Eccentricity
0.36887
Inclination
51.3538°
RAAN
68.0775°
Arg. of periapsis
179.4052°
True anomaly
180.65682°
Mean anomaly
181.3241°
Eccentric anomaly
180.9673°
Mean motion
1.96131 °/min
Orbital period
183.55 mins
BSTAR
0.0035145
Loading maneuver chart data...
Computing Atmospheric mass density...
Loading historical data...
Loading historical data...
Loading historical data...
Loading historical data...
Loading historical data...
Loading historical data...
Loading historical data...

Documentation

Showing up to 5 results
|